QPF
0.03 0.05 0.05 0.05 0.06 0.06 0.06 0.07 0.07 0.08 0.11 0.14 0.14 0.13 0.13 0.15 0.22 0.22 0.17 0.13 0.10 0.07 0.06 0.05 0.04 0.04 0.03 0.03 0.03 0.02 0.02 0.02 0.02 0.02 0.01 0.01 0.01 0.02
0.03 0.03 0.05 0.05 0.06 0.05 0.05 0.05 0.06 0.06 0.08 0.11 0.12 0.12 0.13 0.11 0.16 0.19 0.19 0.18 0.13 0.09 0.07 0.06 0.05 0.04 0.04 0.03 0.03 0.02 0.01 0.01 0.01 0.00 0.01 0.00 0.01 0.01
0.03 0.03 0.04 0.05 0.07 0.06 0.05 0.05 0.05 0.06 0.06 0.07 0.09 0.11 0.13 0.14 0.15 0.15 0.18 0.23 0.16 0.11 0.07 0.06 0.06 0.04 0.03 0.03 0.03 0.03 0.03 0.02 0.02 0.01 0.01 0.01 0.01 0.01
0.04 0.04 0.05 0.05 0.08 0.07 0.06 0.05 0.04 0.05 0.06 0.06 0.07 0.10 0.11 0.14 0.16 0.17 0.16 0.20 0.20 0.15 0.09 0.07 0.06 0.05 0.04 0.03 0.04 0.03 0.03 0.03 0.02 0.02 0.01 0.01 0.01 0.01
0.05 0.06 0.06 0.06 0.07 0.07 0.07 0.05 0.05 0.04 0.06 0.06 0.07 0.09 0.12 0.13 0.17 0.19 0.18 0.20 0.20 0.20 0.16 0.10 0.07 0.07 0.06 0.05 0.04 0.04 0.03 0.03 0.03 0.02 0.01 0.01 0.01 0.01
0.06 0.06 0.05 0.06 0.07 0.08 0.07 0.07 0.06 0.06 0.06 0.06 0.08 0.09 0.12 0.15 0.18 0.21 0.23 0.24 0.20 0.18 0.18 0.14 0.09 0.07 0.07 0.07 0.06 0.05 0.04 0.03 0.03 0.02 0.02 0.01 0.01 0.02
0.06 0.06 0.06 0.05 0.04 0.05 0.05 0.07 0.07 0.08 0.08 0.08 0.08 0.10 0.12 0.17 0.20 0.20 0.22 0.24 0.22 0.19 0.18 0.14 0.10 0.08 0.06 0.06 0.06 0.05 0.05 0.04 0.03 0.02 0.02 0.01 0.01 0.01
0.06 0.07 0.06 0.04 0.03 0.02 0.02 0.03 0.05 0.06 0.07 0.09 0.10 0.10 0.12 0.14 0.17 0.21 0.22 0.21 0.20 0.19 0.20 0.18 0.13 0.10 0.08 0.06 0.04 0.03 0.04 0.05 0.04 0.03 0.02 0.02 0.02 0.02
0.06 0.08 0.06 0.04 0.06 0.05 0.04 0.02 0.02 0.03 0.04 0.05 0.08 0.09 0.11 0.13 0.16 0.18 0.23 0.25 0.22 0.20 0.20 0.21 0.20 0.15 0.10 0.08 0.07 0.06 0.04 0.04 0.04 0.03 0.02 0.02 0.01 0.01
0.06 0.08 0.09 0.09 0.07 0.07 0.06 0.06 0.05 0.04 0.03 0.02 0.05 0.08 0.11 0.14 0.15 0.15 0.18 0.24 0.28 0.29 0.26 0.23 0.21 0.18 0.13 0.08 0.06 0.06 0.05 0.04 0.04 0.03 0.03 0.02 0.02 0.01
0.09 0.08 0.09 0.10 0.06 0.03 0.05 0.07 0.07 0.06 0.03 0.02 0.02 0.04 0.06 0.10 0.14 0.18 0.18 0.21 0.24 0.29 0.30 0.26 0.24 0.22 0.17 0.11 0.08 0.06 0.05 0.04 0.04 0.04 0.04 0.03 0.02 0.02
0.11 0.11 0.07 0.07 0.06 0.03 0.06 0.10 0.10 0.09 0.07 0.05 0.03 0.02 0.03 0.05 0.09 0.15 0.19 0.18 0.21 0.25 0.26 0.23 0.22 0.23 0.21 0.14 0.10 0.07 0.04 0.04 0.04 0.03 0.03 0.03 0.02 0.02
0.09 0.11 0.10 0.04 0.05 0.04 0.05 0.08 0.09 0.09 0.10 0.10 0.08 0.07 0.06 0.06 0.06 0.10 0.17 0.19 0.20 0.21 0.20 0.20 0.20 0.19 0.17 0.15 0.12 0.08 0.05 0.04 0.03 0.02 0.02 0.02 0.02 0.01
0.08 0.10 0.08 0.03 0.03 0.04 0.04 0.05 0.04 0.03 0.06 0.09 0.08 0.08 0.08 0.07 0.06 0.07 0.12 0.17 0.20 0.20 0.19 0.18 0.20 0.20 0.16 0.12 0.11 0.10 0.07 0.05 0.04 0.02 0.01 0.01 0.01 0.02
0.05 0.04 0.03 0.02 0.02 0.03 0.03 0.03 0.03 0.03 0.05 0.06 0.06 0.06 0.07 0.09 0.10 0.09 0.12 0.15 0.18 0.18 0.18 0.18 0.20 0.23 0.20 0.14 0.09 0.08 0.07 0.06 0.04 0.03 0.02 0.01 0.01 0.01
0.04 0.03 0.02 0.02 0.02 0.03 0.03 0.02 0.03 0.04 0.06 0.06 0.07 0.06 0.07 0.08 0.10 0.10 0.11 0.14 0.17 0.17 0.15 0.16 0.18 0.23 0.24 0.19 0.12 0.09 0.06 0.05 0.04 0.04 0.03 0.02 0.02 0.01
0.03 0.05 0.06 0.07 0.07 0.08 0.08 0.08 0.07 0.07 0.07 0.07 0.08 0.08 0.06 0.07 0.08 0.10 0.12 0.13 0.15 0.16 0.14 0.14 0.16 0.19 0.22 0.22 0.17 0.11 0.09 0.07 0.06 0.06 0.05 0.03 0.03 0.02
0.02 0.05 0.07 0.09 0.10 0.12 0.13 0.12 0.12 0.11 0.10 0.10 0.10 0.09 0.07 0.07 0.08 0.09 0.10 0.11 0.11 0.13 0.16 0.14 0.13 0.15 0.18 0.19 0.18 0.13 0.09 0.09 0.08 0.07 0.07 0.05 0.03 0.03
0.02 0.05 0.07 0.10 0.10 0.10 0.11 0.13 0.12 0.12 0.11 0.11 0.11 0.10 0.09 0.09 0.09 0.09 0.09 0.10 0.10 0.10 0.11 0.15 0.12 0.10 0.11 0.13 0.13 0.10 0.09 0.09 0.09 0.08 0.06 0.05 0.04 0.03
0.03 0.05 0.08 0.09 0.10 0.10 0.09 0.10 0.11 0.11 0.10 0.09 0.09 0.10 0.09 0.09 0.09 0.09 0.08 0.08 0.08 0.09 0.10 0.11 0.12 0.10 0.07 0.08 0.10 0.09 0.07 0.08 0.09 0.08 0.06 0.06 0.06 0.05
0.07 0.09 0.09 0.10 0.10 0.10 0.09 0.08 0.09 0.10 0.10 0.10 0.10 0.10 0.09 0.08 0.08 0.08 0.08 0.08 0.08 0.08 0.09 0.08 0.07 0.10 0.10 0.10 0.10 0.10 0.09 0.07 0.08 0.08 0.08 0.08 0.06 0.05
0.09 0.09 0.08 0.07 0.07 0.08 0.09 0.09 0.08 0.09 0.09 0.09 0.09 0.09 0.08 0.07 0.07 0.08 0.08 0.08 0.07 0.07 0.07 0.09 0.09 0.08 0.09 0.09 0.08 0.09 0.09 0.07 0.07 0.07 0.08 0.08 0.06 0.04
0.07 0.06 0.05 0.05 0.05 0.06 0.06 0.07 0.08 0.09 0.10 0.08 0.08 0.07 0.07 0.07 0.07 0.07 0.08 0.07 0.06 0.06 0.07 0.10 0.10 0.09 0.07 0.06 0.07 0.09 0.09 0.08 0.07 0.07 0.07 0.06 0.05 0.04
MSLP
1014.35 1014.37 1014.41 1014.45 1014.47 1014.45 1014.35 1014.17 1013.91 1013.58 1013.20 1012.80 1012.39 1012.01 1011.68 1011.41 1011.24 1011.16 1011.18 1011.32 1011.55 1011.88 1012.29 1012.77 1013.29 1013.85 1014.44 1015.03 1015.65 1016.27 1016.92 1017.57 1018.24 1018.91 1019.56 1020.19 1020.77 1021.28
1013.81 1013.80 1013.81 1013.84 1013.86 1013.85 1013.79 1013.68 1013.50 1013.26 1012.96 1012.62 1012.26 1011.90 1011.55 1011.23 1010.98 1010.79 1010.70 1010.71 1010.83 1011.05 1011.38 1011.79 1012.28 1012.82 1013.40 1014.02 1014.66 1015.32 1016.00 1016.69 1017.38 1018.07 1018.74 1019.38 1019.97 1020.51
1013.20 1013.13 1013.10 1013.08 1013.08 1013.07 1013.04 1012.98 1012.88 1012.74 1012.54 1012.31 1012.03 1011.72 1011.39 1011.06 1010.74 1010.47 1010.27 1010.15 1010.14 1010.25 1010.46 1010.80 1011.23 1011.74 1012.33 1012.96 1013.64 1014.34 1015.05 1015.78 1016.50 1017.21 1017.90 1018.55 1019.15 1019.69
1012.58 1012.45 1012.35 1012.28 1012.23 1012.21 1012.19 1012.17 1012.14 1012.09 1012.01 1011.88 1011.70 1011.47 1011.19 1010.87 1010.53 1010.19 1009.89 1009.65 1009.50 1009.48 1009.58 1009.81 1010.17 1010.64 1011.21 1011.87 1012.57 1013.31 1014.07 1014.83 1015.58 1016.32 1017.02 1017.68 1018.29 1018.84
1012.03 1011.83 1011.66 1011.52 1011.42 1011.36 1011.33 1011.34 1011.36 1011.39 1011.41 1011.39 1011.32 1011.18 1010.97 1010.68 1010.33 1009.94 1009.55 1009.20 1008.92 1008.76 1008.73 1008.85 1009.12 1009.54 1010.09 1010.74 1011.47 1012.25 1013.05 1013.85 1014.64 1015.40 1016.12 1016.79 1017.40 1017.97
1011.59 1011.33 1011.09 1010.88 1010.72 1010.61 1010.56 1010.56 1010.61 1010.70 1010.80 1010.87 1010.90 1010.86 1010.71 1010.47 1010.12 1009.71 1009.25 1008.80 1008.41 1008.11 1007.95 1007.95 1008.12 1008.47 1008.98 1009.62 1010.37 1011.18 1012.02 1012.86 1013.69 1014.47 1015.21 1015.90 1016.53 1017.10
1011.25 1010.94 1010.65 1010.38 1010.16 1010.00 1009.91 1009.90 1009.96 1010.07 1010.22 1010.37 1010.47 1010.51 1010.43 1010.23 1009.91 1009.48 1008.98 1008.45 1007.94 1007.52 1007.24 1007.12 1007.20 1007.47 1007.93 1008.55 1009.30 1010.13 1011.01 1011.90 1012.76 1013.58 1014.35 1015.05 1015.69 1016.28
1011.01 1010.67 1010.34 1010.03 1009.76 1009.55 1009.42 1009.37 1009.41 1009.53 1009.70 1009.88 1010.04 1010.13 1010.11 1009.96 1009.67 1009.24 1008.71 1008.12 1007.54 1007.02 1006.63 1006.40 1006.38 1006.58 1006.98 1007.57 1008.32 1009.17 1010.08 1011.00 1011.91 1012.77 1013.57 1014.30 1014.96 1015.56
1010.81 1010.46 1010.12 1009.78 1009.48 1009.23 1009.05 1008.97 1008.98 1009.07 1009.23 1009.43 1009.61 1009.74 1009.76 1009.65 1009.39 1008.97 1008.44 1007.82 1007.19 1006.60 1006.12 1005.81 1005.71 1005.83 1006.18 1006.74 1007.47 1008.33 1009.26 1010.22 1011.17 1012.07 1012.91 1013.66 1014.35 1014.97
1010.62 1010.29 1009.94 1009.60 1009.28 1009.01 1008.79 1008.66 1008.63 1008.68 1008.81 1008.99 1009.18 1009.32 1009.37 1009.29 1009.06 1008.68 1008.16 1007.54 1006.89 1006.26 1005.74 1005.36 1005.20 1005.26 1005.56 1006.08 1006.80 1007.66 1008.61 1009.59 1010.57 1011.51 1012.38 1013.16 1013.87 1014.50
1010.43 1010.12 1009.79 1009.46 1009.13 1008.84 1008.59 1008.42 1008.33 1008.34 1008.43 1008.57 1008.74 1008.87 1008.94 1008.89 1008.69 1008.35 1007.87 1007.29 1006.65 1006.02 1005.48 1005.07 1004.86 1004.88 1005.14 1005.63 1006.32 1007.16 1008.11 1009.11 1010.11 1011.07 1011.96 1012.76 1013.48 1014.13
1010.22 1009.94 1009.64 1009.32 1009.00 1008.69 1008.42 1008.21 1008.07 1008.03 1008.06 1008.16 1008.29 1008.41 1008.48 1008.45 1008.30 1008.01 1007.59 1007.06 1006.46 1005.87 1005.34 1004.94 1004.71 1004.70 1004.92 1005.37 1006.03 1006.84 1007.77 1008.76 1009.75 1010.71 1011.61 1012.42 1013.14 1013.79
1010.04 1009.78 1009.49 1009.18 1008.86 1008.54 1008.25 1008.00 1007.82 1007.73 1007.71 1007.76 1007.85 1007.95 1008.02 1008.01 1007.90 1007.66 1007.31 1006.86 1006.33 1005.80 1005.32 1004.94 1004.72 1004.70 1004.89 1005.30 1005.91 1006.67 1007.55 1008.50 1009.46 1010.39 1011.27 1012.06 1012.78 1013.41
1009.91 1009.65 1009.36 1009.05 1008.72 1008.39 1008.08 1007.80 1007.58 1007.43 1007.36 1007.36 1007.42 1007.49 1007.55 1007.56 1007.49 1007.32 1007.05 1006.68 1006.25 1005.81 1005.39 1005.06 1004.87 1004.84 1005.01 1005.37 1005.92 1006.62 1007.42 1008.30 1009.19 1010.07 1010.90 1011.66 1012.35 1012.96
1009.84 1009.56 1009.26 1008.94 1008.59 1008.24 1007.90 1007.60 1007.34 1007.15 1007.04 1006.99 1007.01 1007.06 1007.11 1007.13 1007.10 1006.99 1006.80 1006.53 1006.20 1005.85 1005.53 1005.26 1005.11 1005.09 1005.24 1005.56 1006.03 1006.65 1007.36 1008.14 1008.94 1009.74 1010.50 1011.20 1011.84 1012.42
1009.82 1009.52 1009.18 1008.83 1008.46 1008.09 1007.73 1007.40 1007.11 1006.89 1006.74 1006.65 1006.63 1006.65 1006.69 1006.72 1006.72 1006.67 1006.55 1006.37 1006.15 1005.91 1005.68 1005.49 1005.39 1005.40 1005.54 1005.81 1006.22 1006.74 1007.35 1008.02 1008.72 1009.41 1010.09 1010.71 1011.30 1011.83
1009.82 1009.48 1009.11 1008.72 1008.33 1007.93 1007.56 1007.21 1006.90 1006.66 1006.47 1006.36 1006.30 1006.29 1006.31 1006.34 1006.36 1006.34 1006.29 1006.20 1006.08 1005.94 1005.81 1005.71 1005.67 1005.72 1005.86 1006.10 1006.45 1006.89 1007.40 1007.96 1008.55 1009.14 1009.71 1010.27 1010.78 1011.27
1009.79 1009.40 1009.00 1008.59 1008.18 1007.77 1007.39 1007.04 1006.73 1006.47 1006.27 1006.12 1006.04 1005.99 1005.98 1005.99 1006.01 1006.02 1006.01 1005.99 1005.95 1005.91 1005.87 1005.87 1005.90 1006.00 1006.16 1006.40 1006.70 1007.08 1007.51 1007.97 1008.46 1008.96 1009.45 1009.93 1010.40 1010.85
1009.64 1009.24 1008.82 1008.40 1007.99 1007.60 1007.23 1006.89 1006.59 1006.34 1006.13 1005.97 1005.84 1005.76 1005.72 1005.69 1005.69 1005.70 1005.71 1005.73 1005.76 1005.80 1005.85 1005.94 1006.05 1006.21 1006.41 1006.66 1006.95 1007.29 1007.66 1008.06 1008.48 1008.91 1009.34 1009.77 1010.20 1010.62
1009.34 1008.94 1008.54 1008.14 1007.76 1007.41 1007.08 1006.78 1006.52 1006.28 1006.08 1005.90 1005.74 1005.62 1005.52 1005.45 1005.40 1005.38 1005.39 1005.43 1005.51 1005.61 1005.74 1005.90 1006.10 1006.33 1006.58 1006.86 1007.17 1007.50 1007.85 1008.22 1008.60 1008.99 1009.39 1009.79 1010.20 1010.62
1008.88 1008.51 1008.15 1007.81 1007.49 1007.21 1006.95 1006.72 1006.51 1006.31 1006.12 1005.93 1005.74 1005.56 1005.40 1005.26 1005.16 1005.10 1005.08 1005.12 1005.21 1005.35 1005.54 1005.77 1006.04 1006.34 1006.65 1006.99 1007.33 1007.68 1008.03 1008.40 1008.77 1009.16 1009.55 1009.95 1010.37 1010.79
1008.27 1007.96 1007.68 1007.42 1007.20 1007.02 1006.86 1006.72 1006.57 1006.42 1006.24 1006.05 1005.83 1005.60 1005.37 1005.16 1004.98 1004.85 1004.79 1004.80 1004.89 1005.05 1005.28 1005.56 1005.89 1006.25 1006.63 1007.01 1007.39 1007.77 1008.16 1008.54 1008.93 1009.32 1009.73 1010.15 1010.59 1011.03
1007.58 1007.36 1007.17 1007.03 1006.93 1006.86 1006.82 1006.77 1006.70 1006.60 1006.45 1006.24 1005.99 1005.70 1005.40 1005.11 1004.85 1004.65 1004.53 1004.50 1004.57 1004.73 1004.98 1005.30 1005.67 1006.07 1006.49 1006.92 1007.34 1007.76 1008.16 1008.57 1008.98 1009.40 1009.83 1010.28 1010.75 1011.22
Thickness
5645 5647 5648 5650 5654 5656 5659 5660 5659 5661 5669 5679 5686 5694 5699 5704 5708 5709 5713 5715 5717 5719 5721 5722 5723 5723 5723 5723 5723 5723 5723 5723 5723 5723 5723 5723 5722 5722
5636 5637 5638 5641 5644 5647 5649 5652 5655 5656 5659 5669 5676 5683 5690 5696 5700 5703 5707 5711 5714 5716 5717 5719 5720 5721 5721 5721 5721 5722 5722 5722 5722 5722 5722 5722 5722 5722
5627 5628 5630 5632 5633 5635 5639 5642 5645 5648 5650 5659 5667 5674 5679 5685 5691 5695 5700 5704 5707 5711 5713 5715 5717 5718 5719 5719 5720 5720 5720 5720 5721 5721 5721 5721 5721 5721
5617 5618 5620 5622 5623 5625 5627 5630 5634 5639 5642 5647 5654 5662 5669 5676 5682 5687 5693 5698 5702 5706 5709 5711 5713 5715 5716 5717 5718 5718 5719 5719 5719 5720 5720 5720 5721 5720
5609 5608 5610 5611 5612 5614 5617 5620 5624 5630 5634 5638 5645 5652 5659 5667 5672 5679 5686 5691 5696 5701 5704 5706 5709 5711 5712 5714 5715 5716 5716 5716 5717 5717 5718 5718 5719 5719
5600 5600 5601 5603 5604 5605 5608 5611 5614 5618 5622 5628 5634 5642 5649 5657 5662 5667 5674 5681 5687 5693 5698 5701 5703 5705 5708 5709 5711 5713 5713 5714 5714 5715 5715 5716 5716 5717
5592 5592 5593 5595 5597 5598 5601 5603 5605 5608 5612 5617 5624 5631 5639 5645 5651 5658 5663 5671 5678 5685 5689 5693 5696 5698 5701 5703 5706 5709 5710 5710 5711 5711 5712 5713 5713 5714
5583 5584 5586 5588 5590 5592 5593 5595 5597 5599 5603 5608 5614 5621 5629 5636 5643 5648 5654 5660 5667 5677 5680 5684 5689 5693 5696 5699 5702 5704 5706 5707 5707 5708 5708 5709 5710 5710
5577 5577 5580 5584 5584 5586 5587 5589 5591 5594 5597 5601 5607 5613 5621 5629 5634 5639 5645 5651 5659 5668 5672 5675 5681 5685 5690 5694 5696 5698 5700 5701 5703 5704 5705 5706 5706 5706
5573 5573 5574 5575 5576 5577 5579 5582 5585 5589 5592 5596 5603 5609 5614 5620 5627 5632 5638 5644 5652 5658 5664 5667 5672 5676 5681 5685 5688 5691 5693 5696 5697 5699 5700 5701 5701 5701
5570 5570 5570 5570 5569 5570 5571 5574 5578 5582 5586 5592 5598 5603 5608 5613 5619 5624 5630 5635 5641 5649 5656 5660 5664 5666 5670 5674 5678 5681 5684 5688 5690 5692 5693 5694 5695 5695
5566 5566 5565 5564 5562 5563 5565 5568 5570 5574 5579 5585 5590 5595 5601 5607 5612 5618 5624 5628 5634 5639 5648 5652 5656 5658 5659 5663 5667 5671 5674 5677 5681 5683 5686 5687 5688 5688
5561 5561 5560 5557 5556 5556 5558 5561 5564 5567 5572 5577 5583 5589 5595 5601 5607 5613 5618 5623 5628 5634 5642 5646 5649 5652 5655 5656 5659 5663 5666 5669 5671 5674 5677 5680 5682 5683
5556 5556 5555 5551 5550 5551 5553 5556 5559 5562 5566 5571 5577 5583 5589 5595 5602 5608 5613 5618 5625 5630 5635 5641 5643 5646 5649 5650 5652 5655 5658 5661 5665 5668 5670 5671 5673 5676
5554 5552 5550 5547 5547 5548 5550 5553 5554 5558 5562 5567 5572 5578 5585 5591 5596 5601 5606 5611 5617 5622 5628 5633 5637 5640 5643 5646 5648 5649 5651 5654 5658 5662 5664 5665 5668 5670
5552 5551 5550 5549 5547 5548 5551 5552 5553 5557 5561 5564 5569 5575 5580 5585 5590 5595 5598 5603 5607 5613 5619 5625 5630 5633 5635 5639 5642 5644 5647 5649 5652 5655 5658 5660 5662 5666
5547 5549 5551 5551 5552 5552 5553 5554 5556 5558 5560 5562 5566 5570 5575 5579 5584 5589 5593 5597 5600 5605 5610 5616 5621 5625 5629 5632 5634 5638 5640 5643 5646 5649 5651 5653 5657 5661
5545 5550 5551 5552 5552 5553 5553 5554 5555 5556 5558 5560 5563 5566 5570 5575 5579 5584 5587 5590 5594 5599 5604 5609 5612 5615 5618 5622 5627 5631 5633 5636 5640 5642 5644 5646 5649 5653
5549 5552 5553 5553 5552 5553 5553 5553 5554 5555 5557 5558 5560 5563 5566 5571 5575 5578 5581 5584 5588 5593 5598 5602 5605 5608 5610 5613 5619 5624 5628 5630 5632 5633 5636 5640 5643 5646
5555 5554 5554 5553 5553 5553 5553 5553 5553 5554 5555 5557 5559 5561 5563 5567 5570 5573 5577 5580 5583 5587 5590 5594 5598 5603 5607 5611 5614 5617 5621 5624 5625 5626 5629 5631 5632 5635
5559 5557 5556 5555 5554 5554 5553 5553 5553 5553 5554 5555 5557 5559 5562 5564 5567 5570 5573 5576 5579 5582 5585 5588 5593 5598 5602 5605 5607 5611 5614 5616 5619 5621 5623 5623 5624 5625
5560 5558 5557 5556 5555 5554 5553 5552 5552 5553 5553 5554 5555 5557 5559 5562 5564 5567 5570 5572 5575 5579 5582 5585 5588 5591 5594 5597 5601 5604 5605 5606 5607 5610 5613 5617 5620 5621
5561 5559 5558 5556 5555 5554 5553 5552 5552 5552 5553 5553 5554 5555 5557 5559 5561 5564 5567 5570 5573 5576 5578 5580 5582 5585 5589 5593 5596 5598 5599 5600 5600 5600 5600 5604 5610 5615